RH
43 18 12 13 13 11 9 14 12 15 15 20 27 30 27 29 33 39 56 58 56 50 51 68 92 91 90 91 92 92 90 86 85 87 88 87 85 84 84 82 83 83 78 75 74 74 79 81 80
13 14 11 11 11 7 8 10 13 12 14 22 29 36 35 32 44 54 58 59 54 54 56 55 90 89 89 89 90 90 87 88 88 87 86 83 83 82 80 82 83 79 73 74 75 78 81 81 82
14 12 11 11 10 7 8 11 11 11 12 18 23 40 38 38 48 49 56 58 52 50 48 52 89 90 90 89 89 89 86 88 86 83 82 82 82 82 83 82 82 79 79 77 78 80 78 75 74
12 11 11 11 9 11 12 10 13 15 17 11 20 30 45 48 48 52 58 54 52 48 45 77 92 90 89 89 88 87 87 86 85 88 86 84 85 84 84 84 82 78 76 75 74 70 67 68 68
11 13 12 10 11 11 10 10 14 21 15 28 27 30 42 55 52 59 60 56 56 52 49 62 94 89 88 88 87 87 88 87 87 88 89 86 84 84 83 80 76 70 66 63 63 64 67 69 68
13 12 14 11 11 11 11 12 17 25 31 35 35 35 44 57 62 66 62 60 60 64 57 60 87 90 87 86 86 89 88 90 92 90 88 85 84 84 78 69 64 62 62 63 64 67 73 76 72
15 14 15 15 13 13 12 10 13 20 26 29 35 30 47 60 63 66 66 62 62 68 61 62 64 72 91 89 91 90 92 93 92 91 89 87 84 74 66 64 63 63 64 65 67 74 83 80 86
12 13 17 14 12 13 11 11 10 14 20 35 34 25 25 45 62 66 69 75 77 72 61 60 58 58 64 69 94 94 94 92 92 89 86 82 74 70 68 69 66 66 67 67 69 78 85 85 84
12 13 12 13 14 12 11 12 10 20 20 31 34 35 42 46 64 75 76 80 87 80 68 62 61 62 61 65 81 92 94 93 90 81 78 74 50 49 50 68 71 65 67 68 74 79 82 82 81
12 13 12 12 12 13 12 13 12 11 12 18 25 36 46 50 61 79 81 84 83 94 80 62 65 66 69 75 88 92 89 81 73 67 62 53 54 43 42 63 73 66 66 67 77 78 79 65 37
14 14 13 12 12 12 12 12 11 11 11 11 12 12 42 62 56 55 71 71 76 76 84 73 70 72 70 80 83 84 78 77 73 69 65 52 48 55 50 57 63 51 58 36 42 49 29 35 32
18 14 15 13 14 15 16 13 13 11 11 10 10 14 29 50 51 46 58 67 73 76 65 70 73 80 80 76 80 81 77 76 76 66 68 53 50 57 59 47 48 43 34 36 34 32 43 44 43
20 17 17 16 16 15 16 17 15 14 12 14 16 24 25 34 38 42 46 58 56 65 61 59 67 75 77 81 77 78 78 74 71 66 64 49 49 62 51 46 42 40 36 36 35 38 42 45 45
20 19 18 16 16 18 17 14 16 12 20 19 29 21 24 33 36 40 51 57 55 52 58 61 62 70 66 72 79 77 76 76 75 70 65 65 63 66 51 48 40 38 35 33 34 36 41 42 45
20 22 15 15 16 16 15 16 14 14 19 16 21 26 30 34 36 40 43 58 50 47 51 66 63 64 66 65 72 76 73 73 75 68 62 63 72 73 60 42 40 38 39 41 37 40 41 43 41
21 22 20 17 18 15 16 16 15 13 14 13 13 15 22 26 30 32 37 40 42 45 51 55 57 60 65 63 62 58 59 66 56 52 54 63 61 58 51 41 40 40 42 37 38 39 43 44 44
24 16 18 17 19 18 19 19 15 15 16 14 14 13 13 17 21 28 33 37 39 40 52 60 61 61 64 64 58 60 63 53 47 47 49 60 55 52 47 40 42 53 41 40 37 39 45 46 45
17 16 15 19 17 20 20 18 14 13 15 15 14 14 12 14 15 19 22 30 37 42 48 63 61 64 64 64 63 60 56 48 45 44 43 53 48 52 49 41 48 47 41 42 38 44 44 47 46
24 24 22 17 15 21 24 20 16 15 15 16 13 13 14 19 22 24 29 32 37 46 52 65 70 68 64 62 63 62 63 48 47 43 48 56 51 55 52 42 49 46 43 45 48 49 57 51 48
27 27 23 19 21 25 20 20 16 14 14 13 13 16 25 27 27 33 36 36 44 46 52 64 72 77 66 63 65 62 61 48 46 46 55 56 56 55 51 48 47 49 42 50 52 54 53 49 49
26 29 26 26 21 17 17 15 13 13 13 13 20 27 32 36 36 38 41 47 48 51 54 65 74 77 73 70 80 77 75 72 62 62 61 60 59 59 56 54 48 49 47 50 54 55 55 54 50
23 22 24 23 20 18 16 18 13 11 12 14 28 35 40 41 40 41 43 48 53 61 66 71 74 76 81 86 90 89 88 85 77 72 66 68 71 66 63 68 62 58 50 53 54 49 55 53 56
19 21 19 19 19 20 17 17 13 11 11 12 29 40 44 50 59 56 55 55 57 61 68 71 78 83 88 89 91 95 95 93 93 94 91 88 86 79 68 68 65 60 56 60 55 58 56 48 49
16 18 16 17 20 24 16 15 14 11 16 19 32 35 41 42 48 61 73 69 68 67 69 70 74 80 85 89 92 92 95 97 98 98 98 98 94 94 88 73 71 67 63 65 64 63 62 60 52
19 20 24 26 28 25 18 17 15 16 21 27 35 38 34 32 39 48 56 65 76 74 73 70 72 78 77 80 85 90 92 94 94 94 93 88 90 91 89 84 83 73 64 60 58 60 59 55 55
19 18 27 33 28 23 18 23 16 28 33 38 38 35 29 28 30 34 43 59 65 70 69 73 70 67 68 72 76 76 84 90 85 80 74 79 90 91 86 81 77 68 64 62 56 52 50 53 53
22 23 19 29 26 31 22 18 20 29 34 40 39 33 31 26 26 27 27 42 56 63 68 68 59 58 62 67 69 73 76 84 84 84 87 89 90 91 85 79 75 69 64 59 57 52 53 54 55
20 16 28 26 39 36 24 22 20 28 29 38 42 36 30 25 23 21 21 24 32 48 56 61 59 52 52 55 57 59 68 75 83 94 92 92 90 75 72 70 62 62 62 60 54 52 52 51 50
21 22 24 23 27 38 40 34 30 30 32 34 31 28 25 24 22 22 26 25 26 35 49 55 58 64 61 54 63 69 73 77 83 87 85 90 83 72 68 64 62 61 58 56 52 49 48 47 47
20 23 23 35 38 38 46 63 25 27 29 27 25 22 23 22 24 24 26 27 32 44 44 48 53 64 76 80 80 87 91 92 88 81 74 78 79 76 73 66 62 58 56 56 50 51 45 45 46
Wind_Speed
9 7 4 6 7 7 5 6 3 2 1 5 4 4 6 7 8 6 5 5 5 13 15 15 11 15 15 16 16 14 15 18 13 13 11 10 10 10 11 9 11 11 11 11 10 10 10 9 8
5 4 5 2 7 7 8 3 3 4 2 2 1 4 5 3 1 5 4 6 12 13 13 15 12 13 15 16 16 15 13 15 14 12 12 10 12 12 11 10 9 9 9 9 9 9 9 9 7
5 4 5 3 3 2 3 2 6 6 4 7 3 3 2 3 2 3 4 10 14 14 14 14 12 12 13 13 13 14 14 11 13 11 10 10 11 11 11 10 8 8 8 9 9 8 8 9 9
4 5 3 6 2 5 5 9 10 7 3 7 5 4 3 4 2 3 9 12 14 14 13 15 9 11 14 14 15 12 15 12 13 12 11 11 11 11 11 10 9 9 8 9 9 9 7 6 7
4 3 4 3 3 2 3 8 8 8 1 4 6 5 3 4 3 8 10 12 14 13 12 15 7 10 12 14 15 15 15 15 13 13 13 11 11 10 10 9 9 9 8 9 10 10 9 7 8
5 4 6 1 4 1 4 7 5 3 2 4 5 2 5 9 7 9 10 12 12 12 13 16 13 11 12 13 13 13 12 13 12 14 13 11 9 9 9 8 8 8 9 10 10 10 9 9 10
7 4 3 3 0 4 2 8 5 5 2 4 1 2 5 10 9 10 12 10 12 12 12 13 15 14 12 12 12 14 16 16 14 13 12 11 9 8 9 9 9 8 9 10 10 11 12 13 13
4 4 4 2 1 1 1 8 4 4 7 3 3 0 3 8 12 11 11 10 9 11 11 12 13 14 13 13 10 12 16 15 15 15 14 11 10 10 10 10 9 10 12 11 10 12 13 14 14
3 7 5 4 6 3 1 5 3 3 7 2 2 4 5 11 14 11 10 11 9 9 12 12 12 13 13 14 12 13 15 15 14 13 13 11 8 9 12 11 9 11 12 12 13 13 14 15 13
9 7 3 3 1 5 3 5 7 5 4 6 7 6 4 12 15 14 14 13 13 10 11 13 12 10 10 8 11 8 10 10 9 9 11 6 7 6 8 8 8 10 11 11 13 14 13 12 9
4 10 3 5 6 6 9 11 3 10 11 8 10 4 10 12 15 15 15 15 14 14 10 10 10 8 10 8 7 4 4 5 5 9 7 8 7 7 6 6 6 7 10 8 10 11 6 6 6
10 6 7 4 4 9 11 12 14 13 14 14 11 9 9 14 15 14 15 16 15 15 17 15 12 10 10 7 7 7 7 7 6 7 8 9 7 7 6 5 6 5 6 7 7 5 8 9 9
9 6 5 8 11 14 9 13 11 10 9 9 9 7 9 10 11 11 13 14 16 16 17 17 14 13 10 9 7 6 6 6 7 7 8 8 7 8 8 7 6 6 6 7 6 7 8 10 11
1 10 13 12 12 7 9 4 5 4 6 4 5 7 8 9 10 9 11 13 16 16 16 15 16 14 14 11 10 8 7 6 6 6 7 8 7 6 6 7 7 7 6 6 6 7 8 9 10
7 12 12 10 6 4 6 11 10 2 1 2 1 3 6 10 11 13 13 16 16 14 16 16 17 16 16 15 12 8 8 7 6 7 10 10 8 7 8 9 8 7 6 7 6 8 7 9 9
7 5 8 11 5 8 8 14 9 4 7 7 3 2 3 6 10 11 12 13 15 15 15 16 14 16 16 13 11 9 9 8 10 9 9 11 12 12 11 8 7 7 7 8 8 8 9 9 9
7 9 7 10 2 2 8 10 9 8 8 10 9 7 4 7 6 7 9 11 12 14 13 15 15 15 15 12 9 9 8 9 8 8 9 11 12 11 10 8 7 10 8 8 9 8 9 10 10
9 11 9 9 3 8 17 19 16 11 8 11 11 7 2 3 7 9 9 8 11 12 11 13 12 15 14 9 8 7 7 8 8 8 8 12 10 11 10 8 10 10 9 9 9 10 9 9 10
10 12 16 15 14 17 13 16 14 11 12 12 13 1 4 5 6 8 9 7 7 10 11 11 12 13 10 9 10 9 9 9 7 7 9 10 9 11 11 8 9 10 10 11 12 11 14 11 11
8 11 14 11 3 9 15 19 20 17 16 8 2 4 6 5 7 9 10 8 3 6 8 9 8 9 12 9 8 7 8 8 7 6 6 7 8 9 8 8 9 10 8 10 13 13 11 11 13
8 10 12 14 14 15 15 19 5 3 3 9 8 7 6 7 8 9 10 11 7 3 3 4 5 6 8 7 4 4 5 4 5 6 6 4 3 4 6 6 6 8 8 9 12 13 14 12 12
9 3 7 11 12 12 8 11 12 7 5 8 5 6 7 9 9 10 10 11 10 8 6 4 5 5 5 8 6 7 4 6 3 3 5 6 5 3 2 2 4 6 5 8 9 9 10 10 11
8 3 8 12 16 19 14 14 3 9 8 3 7 7 7 7 8 8 10 10 8 6 6 6 8 8 8 9 8 7 7 6 4 7 7 6 3 7 5 3 2 4 5 8 10 10 11 10 10
6 11 15 13 12 13 16 15 6 1 5 6 7 8 8 7 7 5 3 4 4 3 3 6 8 9 11 11 12 12 11 10 8 8 6 6 6 4 8 11 4 3 5 6 6 8 9 7 8
10 11 8 8 9 10 4 9 13 1 3 2 5 7 7 7 7 6 4 4 3 3 5 7 9 13 16 17 18 18 18 19 17 13 9 12 9 6 6 7 8 6 9 7 7 7 8 9 8
9 10 8 11 11 14 6 9 3 6 5 4 7 7 4 4 5 4 1 6 7 8 9 11 12 14 15 15 15 12 11 7 8 14 12 10 9 8 9 10 9 9 6 6 7 6 6 5 7
7 9 5 13 16 16 12 18 10 10 8 8 8 5 2 3 6 8 8 9 10 13 15 15 15 14 13 12 10 12 11 10 7 7 9 7 7 7 10 11 10 10 9 8 8 6 7 7 6
10 1 7 8 8 13 13 19 12 11 10 7 8 7 7 9 13 16 16 16 12 12 13 14 15 14 12 12 10 9 10 11 10 8 10 9 8 12 14 14 10 9 8 9 8 6 7 7 7
9 11 9 9 12 12 15 9 6 4 3 4 5 9 14 18 18 17 15 14 12 10 12 14 15 14 13 12 7 5 7 10 11 10 9 10 10 12 13 12 11 10 10 8 6 6 7 8 8
10 13 15 13 15 12 14 25 5 6 6 9 16 20 24 21 19 16 16 15 9 9 11 12 13 13 12 11 10 8 7 7 9 11 13 11 11 11 12 13 11 9 8 8 8 8 8 8 8
Wind_Direction
165 197 232 235 241 242 163 126 14 150 201 20 355 297 336 342 340 2 75 176 181 161 151 167 154 152 146 143 142 147 144 133 131 129 130 139 139 130 122 109 114 114 111 98 98 110 110 111 108
187 181 218 257 260 232 123 80 231 358 340 293 219 202 237 39 65 97 149 173 165 151 156 160 157 151 153 153 148 146 139 134 136 136 131 119 113 106 101 84 77 93 116 133 126 119 114 111 103
169 246 257 278 263 36 69 85 343 333 265 230 201 253 339 57 107 90 97 151 160 156 163 143 160 156 152 146 148 151 137 135 128 128 134 126 119 114 118 116 120 128 129 129 124 118 124 127 116
180 192 180 252 67 78 347 356 352 349 91 219 226 208 137 27 82 112 133 153 163 157 162 129 142 153 153 148 148 147 137 144 138 140 136 135 130 133 131 134 133 134 137 131 125 120 118 117 109
208 238 234 227 118 19 337 354 339 341 56 170 210 113 91 115 95 131 151 156 165 158 155 153 146 152 152 152 151 153 155 150 151 140 132 134 134 131 132 138 138 139 140 136 128 124 124 121 113
209 284 242 297 94 43 40 18 337 0 68 129 208 219 90 114 155 145 155 156 166 156 167 157 161 160 158 157 162 153 144 119 111 115 117 121 121 125 133 133 132 133 131 130 121 116 112 115 114
264 253 321 283 132 185 64 349 350 359 15 117 29 264 97 172 170 160 160 169 169 158 183 166 173 173 170 170 156 145 132 123 121 111 109 115 121 134 132 128 125 124 124 121 111 106 101 109 107
260 262 232 210 214 121 30 328 357 315 49 50 316 116 94 147 162 168 166 163 168 180 184 179 178 176 177 176 143 138 133 133 128 127 126 129 139 134 131 128 125 118 123 120 106 106 103 103 101
238 242 237 230 227 93 344 333 63 321 272 207 225 288 49 134 155 168 176 169 170 188 182 184 183 181 181 176 150 130 125 125 121 129 134 156 155 157 170 89 126 126 124 120 118 117 110 103 94
238 262 325 334 232 282 248 283 318 273 244 233 245 182 162 154 182 183 186 184 183 174 189 179 179 175 161 141 135 132 138 149 156 150 160 166 159 156 122 127 128 124 123 122 122 128 146 176 133
200 260 18 232 272 287 294 286 294 278 270 267 272 275 179 183 205 197 202 199 197 185 177 196 183 176 174 151 141 144 145 146 152 154 167 155 159 154 151 147 156 159 166 153 154 161 177 133 134
269 255 268 291 241 274 281 301 282 275 280 305 315 319 198 201 210 209 199 203 198 196 194 189 185 178 176 160 166 169 173 167 164 166 165 164 173 167 171 174 179 183 191 166 173 158 136 139 122
246 288 273 269 273 277 280 256 272 270 298 301 272 259 242 226 222 215 203 212 201 206 206 202 187 189 182 180 175 179 184 183 171 171 181 184 181 174 176 174 179 189 187 185 183 152 151 140 132
245 281 279 277 269 233 246 247 224 126 345 308 286 268 247 231 231 219 219 212 222 201 209 206 198 197 192 189 183 182 181 181 180 171 185 188 180 174 186 188 182 177 190 185 179 166 154 145 134
273 281 279 249 203 183 259 224 208 72 336 337 316 232 225 223 224 228 213 216 220 216 202 203 206 198 199 196 187 184 179 173 186 194 185 181 180 188 191 186 184 177 170 180 174 171 160 149 141
267 265 276 130 223 150 227 278 163 190 323 308 331 294 264 246 243 242 233 226 223 214 214 207 207 202 202 202 194 196 186 188 198 191 187 184 189 190 199 187 185 167 171 169 171 174 165 154 147
189 287 281 294 199 227 245 310 297 239 283 288 287 303 308 283 257 254 257 248 238 230 204 226 212 211 201 192 191 190 183 206 195 189 187 187 197 198 200 190 180 175 177 176 174 180 173 159 148
318 286 273 265 148 250 286 281 279 274 258 277 293 328 312 353 10 351 319 261 242 239 224 212 220 211 198 185 184 176 181 198 195 199 199 180 193 196 205 191 173 184 183 178 175 178 169 159 146
296 288 289 300 315 301 287 294 295 284 281 263 275 8 50 22 7 11 359 322 255 241 230 200 221 207 192 189 185 178 186 195 193 199 191 188 190 195 203 195 188 196 188 183 175 173 165 155 149
253 273 283 295 280 300 295 300 284 276 274 297 35 81 42 26 25 20 21 23 324 265 237 234 230 195 191 202 192 182 185 192 191 195 183 197 195 200 207 210 197 201 192 184 176 175 163 161 163
254 273 292 295 313 276 298 279 72 140 141 116 95 94 64 33 22 25 25 32 36 26 272 252 212 161 204 205 147 123 98 116 174 179 173 178 194 207 230 207 214 198 193 184 180 177 177 171 181
294 354 285 292 304 305 24 297 281 299 247 131 80 59 59 46 40 31 27 34 38 37 46 104 109 163 150 131 124 139 158 157 127 106 72 88 65 75 45 337 188 188 202 179 186 186 180 180 182
275 247 279 292 288 294 276 263 133 163 194 28 65 71 65 48 30 24 25 18 30 45 80 113 124 133 133 132 132 116 99 104 120 125 124 124 118 113 75 338 252 216 212 192 181 187 202 197 190
293 273 266 261 270 260 268 238 287 18 104 139 92 90 83 85 102 106 83 28 30 31 126 148 158 156 146 142 149 150 156 164 167 160 174 157 162 198 168 157 255 230 208 186 172 185 206 205 205
262 276 285 258 214 254 99 280 260 179 203 343 137 103 80 64 62 75 88 113 165 211 223 205 195 192 188 185 184 181 180 180 184 176 171 171 161 192 185 181 169 209 208 175 164 177 195 201 192
216 238 252 292 297 301 224 253 253 112 133 141 138 137 114 69 44 20 263 189 202 212 219 214 218 227 214 208 207 206 191 179 204 183 184 188 182 165 171 187 195 209 188 168 158 171 174 180 197
186 227 289 272 265 272 253 258 183 159 158 166 169 177 227 328 326 315 302 269 234 213 213 215 210 212 215 219 210 205 208 201 213 178 180 182 167 148 180 190 189 190 175 173 166 166 155 176 169
250 318 218 215 267 263 267 274 271 194 195 176 203 240 278 300 309 308 305 303 265 248 246 227 225 218 220 222 216 207 206 208 191 160 184 170 168 176 184 186 186 187 167 176 166 161 163 163 164
191 219 230 277 256 266 282 266 45 66 166 213 269 284 295 303 311 312 310 306 295 283 243 241 230 240 250 246 228 221 232 221 212 193 188 169 165 170 173 175 177 172 181 163 171 171 174 175 162
270 260 252 247 248 237 258 267 259 263 227 283 293 302 312 309 313 311 310 310 301 286 258 242 242 238 241 270 253 203 194 218 219 215 185 168 166 169 162 168 174 174 170 157 177 181 179 182 173